Other Public Products
Issued by NWS Charleston, SC

Current Version | Previous Version | Graphics & Text | Print | Product List | Glossary On
Versions: 1 2 3 4 5 6 7 8 9 10 11 12 13 14 15 16 17 18 19 20 21 22 23 24 25 26 27 28 29 30 31 32 33 34 35 36 37 38 39 40 41 42 43 44 45 46 47 48 49 50
042 FPUS82 KCHS 232012 OPUCHS TEST...KCHS/KSAV Gateway Observations...TEST National Weather Service Charleston SC 400 PM EDT MON APR 23 2018 NOTE: "fair" indicates few or no clouds below 12,000 feet with no significant weather and/or obstructions to visibility. SCZ050-WAZ558-NCZ071-TXZ119-213-PAZ071-DCZ001-FLZ074-172-MI076- NYZ176-178-MAZ016-IL014-TNZ027-NJZ106-GAZ044-MD014-232100- ...Gateway Observations for Charleston International... CITY SKY/WX TMP DP RH WIND PRES REMARKS Chas Airport RAIN 67 65 93 SE26G36 30.03F FOG Seattle FAIR 67 38 34 N16 30.29F Charlotte HVY RAIN 58 57 97 E13G22 30.11F FOG Dallas DFW PTSUNNY 73 51 46 NW15G23 30.03F Dallas Love MOSUNNY 74 53 48 NW10G23 30.04F Philladelphia FAIR 68 29 23 W14G20 30.41S Wash National PTSUNNY 67 44 43 SE17 30.36F Baltimore PTSUNNY 67 43 41 SE13 30.37F Miami CLOUDY 79 74 84 SE10G17 30.00S Detroit PTSUNNY 71 42 35 E9 30.16F Newark FAIR 60 35 39 SE8 30.43F Laguardia FAIR 63 29 27 S9 30.43F J F K FAIR 56 35 45 SE14 30.46F Boston Logan FAIR 53 28 38 E16 30.44F Ft. Lauderdale CLOUDY 80 74 81 S12 30.00F Chicago O`Hare PTSUNNY 61 30 31 NE17 30.11F Chicago Midway PTSUNNY 62 33 33 NE13 30.11F Houston Bush FAIR 79 54 41 W8 30.02F Houston Hobby FAIR 79 50 36 NW13 30.01F Nashville PTSUNNY 68 57 68 NW10 29.88F THUNDER Atlanta PTSUNNY 68 64 87 NE12 29.90F $$ GAZ044-118-TXZ119-213-NCZ071-DCZ001-MDZ014-506-PAZ021-071-NJZ106- NYZ176-178-MAZ106-OHZ011-021-055-MIZ076-KYZ091-ILZ014-INZ047- MNZ060-ONZ431-232100- ...Gateway Observations for Savannah International... CITY SKY/WX TMP DP RH WIND PRES REMARKS Savannah Arpt RAIN 70 69 97 SE12 29.96F VSB 1 Atlanta PTSUNNY 68 64 87 NE12 29.90F Charlotte HVY RAIN 58 57 97 E13G22 30.11F FOG Dallas DFW PTSUNNY 73 51 46 NW15G23 30.03F Houston Bush FAIR 79 54 41 W8 30.02F Wash National PTSUNNY 67 44 43 SE17 30.36F Wash Dulles PTSUNNY 69 43 38 SE10G22 30.34F Baltimore PTSUNNY 67 43 41 SE13 30.37F Philadelphia FAIR 68 29 23 W14G20 30.41S Newark FAIR 60 35 39 SE8 30.43F Laguardia FAIR 63 29 27 S9 30.43F J F K FAIR 56 35 45 SE14 30.46F Boston FAIR 53 28 38 E16 30.44F Pittsburg PTSUNNY 71 34 25 S13G21 30.19F Akron PTSUNNY 72 39 30 S16G24 30.17F Cleveland PTSUNNY 74 38 27 S13G23 30.17F Cincinnati LGT RAIN 56 53 90 E15 30.09F Columbus LGT RAIN 55 49 80 S8 30.20F Detroit PTSUNNY 71 42 35 E9 30.16F Chicago O`Hare PTSUNNY 61 30 31 NE17 30.11F Minneapolis FAIR 69 35 28 NW5 30.16F Indianapolis LGT RAIN 55 53 93 E12 30.07F FOG Toronto Canada MOSUNNY 64 21 19 E10G17 30.26F $$

USA.gov is the U.S. government's official web portal to all federal, state and local government web resources and services.